Ahmedabad, India

11:57 PM IST on November 21, 2017 (GMT +0530)
Ahmedabad

Weather History for VAAH - March, 2012

Change the Weather History Date:

Thursday, March 1, 2012

  Actual Average Record
Temperature  
Mean Temperature 74 °F -  
Max Temperature 86 °F 93 °F 99 °F (2016)
Min Temperature 63 °F 67 °F 54 °F (2014)
Cooling Degree Days 10    
Growing Degree Days 24 (Base 50)    
Moisture  
Dew Point 50 °F    
Average Humidity 38    
Maximum Humidity 60    
Minimum Humidity 23    
Precipitation  
Precipitation 0.00 in 0.00 in - ()
Sea Level Pressure  
Sea Level Pressure 29.77 in    
Wind  
Wind Speed 5 mph ()    
Max Wind Speed 12 mph    
Max Gust Speed -    
Visibility 2.6 miles    
Events      
Averages and records for this station are not official NWS values.
T = Trace of Precipitation, MM = Missing Value Source: Averaged Metar Reports

Daily Weather History Graph

Daily Weather History Graph

Search for Another Location

Airport or City:

Trip Planner

Search our weather history database for the weather conditions in past years. The results will help you decide how hot, cold, wet, or windy it might be!

Date:

Astronomy

Mar. 01, 2012 Rise Set
Actual Time 7:00 AM IST 6:42 PM IST
Civil Twilight 6:38 AM IST 7:05 PM IST
Nautical Twilight 6:12 AM IST 7:31 PM IST
Astronomical Twilight 5:46 AM IST 7:57 PM IST
Moon 12:10 PM IST (3/1) 1:06 AM IST (3/1)
Length of Visible Light 12h 27m
Length of Day
11h 41m
First Quarter, 52% of the Moon is Illuminated
Mar 1
First Quarter
Mar 8
Full
Mar 15
Last Quarter
Mar 22
New
Mar 31
First Quarter

Hourly Weather History & Observations

Time (IST) Temp. Heat Index Dew Point Humidity Pressure Visibility Wind Dir Wind Speed Gust Speed Precip Events Conditions
12:10 AM 73.4 °F - 39.2 °F 29% 29.74 in - WSW 3.5 mph - N/A   Smoke
12:40 AM 75.2 °F - 41.0 °F 29% 29.74 in - SW 3.5 mph - N/A   Smoke
1:10 AM 77.0 °F - 41.0 °F 28% 29.74 in - SW 3.5 mph - N/A   Smoke
1:40 AM 75.2 °F - 44.6 °F 34% 29.74 in - West 8.1 mph - N/A   Smoke
2:10 AM 75.2 °F - 44.6 °F 34% 29.74 in - WNW 6.9 mph - N/A   Smoke
2:30 AM 69 °F - 46 °F 32% 29.76 in 2 mi WNW 3.5 mph - -  
2:40 AM 73.4 °F - 46.4 °F 38% 29.74 in - WNW 5.8 mph - N/A   Smoke
3:10 AM 73.4 °F - 46.4 °F 38% 29.74 in - WNW 8.1 mph - N/A   Smoke
3:40 AM 71.6 °F - 46.4 °F 41% 29.74 in - WNW 6.9 mph - N/A   Smoke
4:10 AM 71.6 °F - 44.6 °F 38% 29.74 in - WNW 4.6 mph - N/A   Smoke
4:40 AM 69.8 °F - 44.6 °F 40% 29.74 in - WNW 3.5 mph - N/A   Smoke
5:10 AM 69.8 °F - 46.4 °F 43% 29.74 in - WNW 3.5 mph - N/A   Smoke
5:30 AM 65 °F - 47 °F 42% 29.78 in 2 mi NW 4.6 mph - -  
5:40 AM 68.0 °F - 46.4 °F 46% 29.77 in - NW 3.5 mph - N/A   Smoke
6:10 AM 66.2 °F - 48.2 °F 52% 29.77 in - NW 3.5 mph - N/A   Smoke
7:10 AM 66.2 °F - 50.0 °F 56% 29.80 in 1.6 mi NNW 4.6 mph - N/A   Smoke
8:10 AM 66.2 °F - 51.8 °F 60% 29.83 in 1.6 mi NNW 5.8 mph - N/A   Smoke
8:30 AM 68 °F - 54 °F 51% 29.84 in 2 mi NW 3.5 mph - -   Haze
8:40 AM 69.8 °F - 55.4 °F 60% 29.83 in 1.9 mi NW 5.8 mph - N/A   Smoke
9:10 AM 71.6 °F - 53.6 °F 53% 29.83 in 2.5 mi NNW 11.5 mph - N/A   Smoke
9:40 AM 73.4 °F - 53.6 °F 50% 29.86 in 2.5 mi NW 11.5 mph - N/A   Smoke
10:10 AM 75.2 °F - 55.4 °F 50% 29.86 in 2.5 mi NW 10.4 mph - N/A   Smoke
10:40 AM 77.0 °F - 55.4 °F 47% 29.86 in 2.5 mi WNW 10.4 mph - N/A   Smoke
11:30 AM 76 °F - 55 °F 38% 29.85 in 2 mi WNW 3.5 mph - -  
11:40 AM 77.0 °F - 51.8 °F 41% 29.83 in 3.1 mi NNW 9.2 mph - N/A   Smoke
12:10 PM 80.6 °F 80.3 °F 53.6 °F 39% 29.83 in 3.1 mi West 10.4 mph - N/A   Smoke
12:40 PM 80.6 °F - 51.8 °F 37% 29.80 in 3.1 mi NNW 9.2 mph - N/A   Smoke
1:10 PM 82.4 °F - 51.8 °F 35% 29.80 in 3.1 mi NW 9.2 mph - N/A   Smoke
1:40 PM 84.2 °F - 51.8 °F 33% 29.77 in 3.1 mi NNW 9.2 mph - N/A   Smoke
2:10 PM 84.2 °F - 50.0 °F 30% 29.77 in 3.7 mi North 6.9 mph - N/A   Unknown
2:30 PM 83 °F - 52 °F 23% 29.78 in 2 mi NW 3.5 mph - -  
2:40 PM 86.0 °F - 50.0 °F 29% 29.74 in 3.7 mi NNW 5.8 mph - N/A   Unknown
3:10 PM 84.2 °F - 48.2 °F 29% 29.74 in 3.7 mi NW 9.2 mph - N/A   Unknown
3:40 PM 86.0 °F - 48.2 °F 27% 29.71 in 3.7 mi West 11.5 mph - N/A   Unknown
4:10 PM 87.8 °F - 50.0 °F 27% 29.71 in 3.7 mi SW 9.2 mph - N/A   Unknown
4:40 PM 86.0 °F - 50.0 °F 29% 29.71 in 3.7 mi SW 11.5 mph - N/A   Unknown
5:10 PM 86.0 °F - 50.0 °F 29% 29.71 in 3.7 mi West 6.9 mph - N/A   Unknown
5:30 PM 85 °F - 53 °F 23% 29.75 in 2 mi SW 3.5 mph - -  
6:10 PM 84.2 °F - 46.4 °F 27% 29.74 in 3.1 mi WSW 10.4 mph - N/A   Smoke
6:40 PM 84.2 °F - 48.2 °F 29% 29.74 in 2.5 mi SW 5.8 mph - N/A   Smoke
7:10 PM 82.4 °F - 48.2 °F 30% 29.74 in 2.5 mi West 5.8 mph - N/A   Smoke
8:10 PM 78.8 °F - 46.4 °F 32% 29.74 in 2.5 mi Variable 2.3 mph - N/A   Smoke
8:30 PM 71 °F - 54 °F 46% 29.78 in 1 mi Calm Calm - -   Smoke
8:40 PM 80.6 °F - 50.0 °F 34% 29.77 in 2.5 mi Variable 2.3 mph - N/A   Smoke
9:10 PM 80.6 °F 80.3 °F 53.6 °F 39% 29.77 in 2.5 mi Calm Calm - N/A   Smoke
9:40 PM 80.6 °F 80.5 °F 55.4 °F 42% 29.77 in 2.5 mi Calm Calm - N/A   Smoke
10:10 PM 78.8 °F - 57.2 °F 47% 29.80 in 2.5 mi Calm Calm - N/A   Smoke
10:40 PM 78.8 °F - 55.4 °F 44% 29.80 in 2.5 mi SW 5.8 mph - N/A   Smoke
11:10 PM 77.0 °F - 50.0 °F 39% 29.77 in 2.5 mi SW 9.2 mph - N/A   Smoke
11:30 PM 72 °F - 52 °F 39% 29.80 in 1 mi SW 5.8 mph - -   Smoke
11:40 PM 75.2 °F - 51.8 °F 44% 29.77 in 2.5 mi SW 4.6 mph - N/A   Smoke